Location: Cheyres
(46.8153°N, 6.7877°E)
Time: 00:52:20
(UTC+00:00)

SEEDS - Pass Details

Date: 07 July 2022
Orbit: 579 x 598 km, 97.6° (Epoch: 06 August)

Event Time Altitude Azimuth Distance (km) Brightness Sun altitude
Rises 02:32:04 0° 33° (NNE) 2,810 ? -10.2°
Reaches altitude 10° 02:35:29 10° 63° (ENE) 1,902 ? -9.8°
Maximum altitude 02:37:13 12° 88° (E) 1,750 ? -9.7°
Drops below altitude 10° 02:38:56 10° 113° (ESE) 1,895 ? -9.5°
Sets 02:42:20 0° 144° (SE) 2,788 ? -9.1°
